CW3081 Weather Reports


time (UTC)temp
C
wind
direction
speed
KPH
gust
KPH
rain 1hr
cm
rain 24hr
cm
rain mn
cm
humidity
%
barometer
mb
20260505124557 -17 0.0 0.0 0.00 0.00 0.00 1011.5
20260505123059 -17 0.0 0.0 0.00 0.00 0.00 1011.5
20260505121552 -17 0.0 0.0 0.00 0.00 0.00 1011.5
20260505120051 -17 0.0 0.0 0.00 0.00 0.00 1011.5
20260505114546 -17 0.0 0.0 0.00 0.00 0.00 1011.4
20260505113049 -17 0.0 0.0 0.00 0.00 0.00 1010.9
20260505111543 -17 0.0 0.0 0.00 0.00 0.00 1010.8
20260505101605 13 0 0.0 1.6 0.00 0.00 0.00 80 1010.6
20260505100100 13 0 0.0 0.0 0.00 0.00 0.00 78 1010.4
20260505094549 14 0 0.0 1.6 0.00 0.00 0.00 77 1010.4
20260505093059 15 0 0.0 0.0 0.00 0.00 0.00 75 1010.3
20260505091544 15 0 0.0 0.0 0.00 0.00 0.00 72 1010.3
20260505090045 15 0 0.0 0.0 0.00 0.00 0.00 71 1010.1
20260505084541 15 0 0.0 0.0 0.00 0.00 0.00 70 1010.2
20260505083043 16 224 0.0 1.6 0.00 0.00 0.00 70 1010.2
20260505081601 16 0 0.0 1.6 0.00 0.00 0.00 69 1010.0
20260505080059 16 0 0.0 1.6 0.00 0.00 0.00 69 1009.8
20260505074547 16 0 0.0 1.6 0.00 0.00 0.00 68 1010.0
20260505073047 16 224 0.0 1.6 0.00 0.00 0.00 68 1010.0
20260505071551 16 0 0.0 1.6 0.00 0.00 0.00 68 1010.2
20260505070045 16 0 0.0 1.6 0.00 0.00 0.00 67 1010.3
20260505064546 16 0 0.0 0.0 0.00 0.00 0.00 67 1010.6
20260505063050 16 0 0.0 0.0 0.00 0.00 0.00 67 1010.8
20260505061546 16 0 0.0 0.0 0.00 0.00 0.00 66 1010.9
20260505060046 17 0 0.0 0.0 0.00 0.00 0.00 65 1011.0
20260505054547 17 0 0.0 0.0 0.00 0.00 0.00 64 1011.1
20260505053046 17 0 0.0 0.0 0.00 0.00 0.00 64 1011.1
20260505051547 17 0 0.0 0.0 0.00 0.00 0.00 63 1010.9
20260505041541 18 0 0.0 0.0 0.00 0.00 0.00 59 1010.6
20260505040042 18 219 0.0 1.6 0.00 0.00 0.00 58 1010.8
20260505034548 19 0 0.0 1.6 0.00 0.00 0.00 58 1010.7
20260505033043 19 0 0.0 1.6 0.00 0.00 0.00 56 1010.6
20260505031548 19 219 0.0 1.6 0.00 0.00 0.00 55 1010.5
20260505030043 20 219 0.0 1.6 0.00 0.00 0.00 55 1010.4
20260505024551 20 0 0.0 1.6 0.00 0.00 0.00 55 1010.5
20260505023051 20 205 0.0 1.6 0.00 0.00 0.00 55 1010.3
20260505021545 20 167 0.0 1.6 0.00 0.00 0.00 54 1010.3
20260505020046 20 232 0.0 1.6 0.00 0.00 0.00 54 1010.2
20260505014550 20 238 0.0 1.6 0.00 0.00 0.00 55 1010.0
20260505013047 20 238 0.0 1.6 0.00 0.00 0.00 54 1010.2
20260505011548 21 238 0.0 1.6 0.00 0.00 0.00 54 1010.1
20260505010105 21 0 0.0 0.0 0.00 0.00 0.00 52 1010.2
20260505004546 22 0 0.0 1.6 0.00 0.00 0.00 49 1010.0
20260505003045 22 238 0.0 1.6 0.00 0.00 0.00 47 1010.1
20260505001539 23 241 0.0 1.6 0.00 0.00 0.00 46 1010.1
20260505000049 23 238 1.6 3.2 0.00 0.00 0.00 45 1010.0
20260504234545 23 231 1.6 3.2 0.00 0.00 0.00 44 1010.2
20260504233043 23 233 1.6 4.8 0.00 0.00 0.00 42 1010.3
20260504231551 24 227 3.2 6.4 0.00 0.00 0.00 42 1010.3
20260504230046 24 255 3.2 6.4 0.00 0.00 0.00 43 1010.2
20260504224546 24 211 3.2 9.7 0.00 0.00 0.00 43 1010.2
20260504223059 25 240 0.0 6.4 0.00 0.00 0.00 44 1010.1
20260504221556 25 205 3.2 9.7 0.00 0.00 0.00 41 1010.2
20260504220051 25 263 3.2 9.7 0.00 0.00 0.00 42 1010.0
20260504214558 25 236 1.6 8.0 0.00 0.00 0.00 43 1009.9
20260504213059 25 239 3.2 9.7 0.00 0.00 0.00 42 1010.1
20260504211549 25 277 3.2 8.0 0.00 0.00 0.00 41 1010.0
20260504210045 25 143 1.6 6.4 0.00 0.00 0.00 46 1010.2
20260504204553 25 236 1.6 4.8 0.00 0.00 0.00 45 1010.2
20260504203049 25 248 1.6 6.4 0.00 0.00 0.00 47 1010.4
20260504201552 25 253 3.2 8.0 0.00 0.00 0.00 46 1010.6
20260504200047 26 271 3.2 8.0 0.00 0.00 0.00 43 1010.8
20260504194549 26 264 1.6 8.0 0.00 0.00 0.00 44 1010.9
20260504193041 25 261 3.2 8.0 0.00 0.00 0.00 45 1011.2
20260504191548 26 182 1.6 6.4 0.00 0.00 0.00 46 1011.3
20260504190048 25 274 4.8 8.0 0.00 0.00 0.00 46 1011.5
20260504184542 25 226 3.2 6.4 0.00 0.00 0.00 48 1011.7
20260504183046 25 226 3.2 9.7 0.00 0.00 0.00 49 1011.7
20260504181550 25 214 3.2 6.4 0.00 0.00 0.00 49 1012.0
20260504180049 25 276 3.2 6.4 0.00 0.00 0.00 51 1012.1
20260504174550 25 180 0.0 6.4 0.00 0.00 0.00 53 1012.1
20260504173049 24 272 3.2 6.4 0.00 0.00 0.00 52 1012.5
20260504171549 24 261 3.2 4.8 0.00 0.00 0.00 54 1012.5